ギャラッド彗星

259P/Garradd (2017)

English version
Home page
Updated on October 8, 2017

---------------------------------------------------------------------

・ プロフィール

・ 写真集

・ 軌道要素

Epoch 2017 July 26.0 TT = JDT 2457960.5
T 2017 Aug. 4.03127 TT                                  MPCW
q   1.8089676            (2000.0)            P               Q
n   0.21833875     Peri.  257.50378     +0.59996966     +0.77080897
a   2.7313803      Node    51.48422     -0.58549961     +0.60552882
e   0.3377094      Incl.   15.88962     -0.54518494     +0.19796055
P   4.51
From 48 observations 2008 Sept. 2-2017 Apr. 29, mean residual 0".5.

・ 光度変化

        m1 = 11.0 + 5 logΔ + 30.0 log r(t - 50)

---------------------------------------------------------------------

軌道要素はM.P.E.C. 2017-L52に掲載されたものです。
光度グラフはComet for Windowsで作成したものです。

---------------------------------------------------------------------

Copyright(C) Seiichi Yoshida (comet@aerith.net). All rights reserved.